Stündliche Wetter Holovkove

Heute, 15 Juni, Dienstag

Zeit Temperatur Niederschläge Wind Luftdruck Luftfeuchtigkeit
00:00 +18°C° 0.1 mm 2 m/S 744 mmHg 86%
01:00 +18°C° 0.1 mm 2 m/S 744 mmHg 88%
02:00 +17°C° 0.1 mm 2 m/S 743 mmHg 89%
03:00 +17°C° 0.1 mm 2 m/S 743 mmHg 91%
04:00 +17°C° 0 mm 2 m/S 743 mmHg 91%
05:00 +18°C° 0 mm 2 m/S 743 mmHg 91%
06:00 +18°C° 0 mm 2 m/S 743 mmHg 91%
07:00 +19°C° 0.2 mm 2 m/S 743 mmHg 87%
08:00 +21°C° 0.2 mm 3 m/S 743 mmHg 83%
09:00 +22°C° 0.2 mm 3 m/S 743 mmHg 78%
10:00 +24°C° 0.1 mm 3 m/S 743 mmHg 73%
11:00 +25°C° 0.1 mm 3 m/S 743 mmHg 68%
12:00 +26°C° 0.1 mm 2 m/S 743 mmHg 62%
13:00 +27°C° 0.5 mm 2 m/S 743 mmHg 62%
14:00 +27°C° 0.5 mm 2 m/S 742 mmHg 61%
15:00 +27°C° 0.5 mm 1 m/S 742 mmHg 60%
16:00 +26°C° 0.7 mm 1 m/S 742 mmHg 64%
17:00 +26°C° 0.7 mm 2 m/S 742 mmHg 68%
18:00 +25°C° 0.7 mm 2 m/S 742 mmHg 71%
19:00 +24°C° 0.1 mm 1 m/S 742 mmHg 76%
20:00 +23°C° 0.1 mm 1 m/S 742 mmHg 80%
21:00 +21°C° 0.1 mm 1 m/S 742 mmHg 84%
22:00 +19°C° 0.1 mm 0 m/S 742 mmHg 84%
23:00 +18°C° 0.1 mm 0 m/S 742 mmHg 85%

Morgen, 16 Juni, Mittwoch

Zeit Temperatur Niederschläge Wind Luftdruck Luftfeuchtigkeit
00:00 +18°C° 0.1 mm 0 m/S 742 mmHg 86%
01:00 +17°C° 0.1 mm 0 m/S 742 mmHg 87%
02:00 +17°C° 0.1 mm 0 m/S 742 mmHg 88%
03:00 +19°C° 0.1 mm 1 m/S 742 mmHg 88%
04:00 +18°C° 0 mm 0 m/S 742 mmHg 88%
05:00 +18°C° 0 mm 0 m/S 742 mmHg 87%
06:00 +19°C° 0 mm 0 m/S 742 mmHg 87%
07:00 +20°C° 0 mm 0 m/S 743 mmHg 83%
08:00 +23°C° 0 mm 1 m/S 743 mmHg 78%
09:00 +24°C° 0 mm 1 m/S 743 mmHg 74%
10:00 +25°C° 0.2 mm 1 m/S 743 mmHg 69%
11:00 +25°C° 0.2 mm 0 m/S 743 mmHg 65%
12:00 +26°C° 0.2 mm 0 m/S 743 mmHg 60%
13:00 +26°C° 0 mm 0 m/S 743 mmHg 57%
14:00 +27°C° 0 mm 0 m/S 743 mmHg 55%
15:00 +29°C° 0 mm 1 m/S 743 mmHg 53%
16:00 +29°C° 0 mm 1 m/S 743 mmHg 58%
17:00 +28°C° 0 mm 2 m/S 743 mmHg 62%
18:00 +28°C° 0 mm 2 m/S 743 mmHg 67%
19:00 +26°C° 0.1 mm 2 m/S 744 mmHg 72%
20:00 +24°C° 0.1 mm 3 m/S 744 mmHg 77%
21:00 +21°C° 0.1 mm 3 m/S 744 mmHg 82%
22:00 +21°C° 0 mm 3 m/S 744 mmHg 84%
23:00 +20°C° 0 mm 3 m/S 744 mmHg 87%

übermorgen, 17 Juni, Donnerstag

Zeit Temperatur Niederschläge Wind Luftdruck Luftfeuchtigkeit
00:00 +19°C° 0 mm 3 m/S 744 mmHg 89%
01:00 +19°C° 0 mm 3 m/S 745 mmHg 90%
02:00 +19°C° 0 mm 4 m/S 745 mmHg 92%
03:00 +18°C° 0 mm 4 m/S 745 mmHg 93%
04:00 +19°C° 0 mm 4 m/S 745 mmHg 93%
05:00 +19°C° 0 mm 4 m/S 745 mmHg 93%
06:00 +19°C° 0 mm 4 m/S 746 mmHg 92%
07:00 +20°C° 0 mm 5 m/S 746 mmHg 88%
08:00 +22°C° 0 mm 6 m/S 746 mmHg 83%
09:00 +23°C° 0 mm 6 m/S 747 mmHg 78%
10:00 +24°C° 0 mm 6 m/S 747 mmHg 74%
11:00 +26°C° 0 mm 6 m/S 747 mmHg 70%
12:00 +27°C° 0 mm 6 m/S 747 mmHg 65%
13:00 +26°C° 0 mm 6 m/S 747 mmHg 66%
14:00 +26°C° 0 mm 6 m/S 747 mmHg 67%
15:00 +26°C° 0 mm 6 m/S 748 mmHg 68%
16:00 +26°C° 0 mm 6 m/S 748 mmHg 69%
17:00 +24°C° 0 mm 6 m/S 748 mmHg 71%
18:00 +24°C° 0 mm 6 m/S 748 mmHg 72%
19:00 +22°C° 0 mm 6 m/S 749 mmHg 72%
20:00 +21°C° 0 mm 6 m/S 749 mmHg 72%
21:00 +20°C° 0 mm 6 m/S 749 mmHg 72%
22:00 +19°C° 0 mm 6 m/S 750 mmHg 73%
23:00 +17°C° 0 mm 5 m/S 750 mmHg 73%

18 Juni, Freitag

Zeit Temperatur Niederschläge Wind Luftdruck Luftfeuchtigkeit
00:00 +16°C° 0 mm 5 m/S 750 mmHg 74%
01:00 +15°C° 0 mm 5 m/S 750 mmHg 78%
02:00 +15°C° 0 mm 4 m/S 750 mmHg 81%
03:00 +14°C° 0 mm 4 m/S 751 mmHg 85%
04:00 +14°C° 0 mm 4 m/S 751 mmHg 85%
05:00 +14°C° 0 mm 4 m/S 751 mmHg 85%
06:00 +14°C° 0 mm 4 m/S 752 mmHg 84%
07:00 +16°C° 0 mm 5 m/S 752 mmHg 79%
08:00 +17°C° 0 mm 5 m/S 752 mmHg 74%
09:00 +20°C° 0 mm 6 m/S 752 mmHg 68%
10:00 +21°C° 0 mm 6 m/S 752 mmHg 65%
11:00 +22°C° 0 mm 6 m/S 753 mmHg 62%
12:00 +23°C° 0 mm 6 m/S 753 mmHg 58%
13:00 +23°C° 0 mm 6 m/S 753 mmHg 57%
14:00 +23°C° 0 mm 6 m/S 753 mmHg 56%
15:00 +24°C° 0 mm 6 m/S 753 mmHg 54%
16:00 +23°C° 0 mm 5 m/S 752 mmHg 58%
17:00 +23°C° 0 mm 5 m/S 752 mmHg 61%
18:00 +23°C° 0 mm 5 m/S 752 mmHg 65%
19:00 +21°C° 0 mm 4 m/S 753 mmHg 69%
20:00 +19°C° 0 mm 4 m/S 753 mmHg 73%
21:00 +18°C° 0 mm 4 m/S 753 mmHg 78%
22:00 +17°C° 0 mm 4 m/S 753 mmHg 79%
23:00 +15°C° 0 mm 4 m/S 753 mmHg 79%

19 Juni, Samstag

Zeit Temperatur Niederschläge Wind Luftdruck Luftfeuchtigkeit
00:00 +15°C° 0 mm 4 m/S 753 mmHg 80%
01:00 +14°C° 0 mm 4 m/S 753 mmHg 81%
02:00 +14°C° 0 mm 4 m/S 753 mmHg 83%
03:00 +14°C° 0 mm 3 m/S 754 mmHg 84%
04:00 +14°C° 0 mm 3 m/S 754 mmHg 84%
05:00 +14°C° 0 mm 3 m/S 754 mmHg 84%
06:00 +16°C° 0 mm 3 m/S 754 mmHg 85%
07:00 +17°C° 0 mm 4 m/S 754 mmHg 78%
08:00 +19°C° 0 mm 4 m/S 755 mmHg 72%
09:00 +21°C° 0 mm 5 m/S 755 mmHg 66%
10:00 +21°C° 0 mm 5 m/S 755 mmHg 62%
11:00 +22°C° 0 mm 5 m/S 754 mmHg 59%
12:00 +23°C° 0 mm 5 m/S 754 mmHg 56%
13:00 +23°C° 0 mm 5 m/S 754 mmHg 55%
14:00 +25°C° 0 mm 5 m/S 754 mmHg 53%
15:00 +25°C° 0 mm 5 m/S 753 mmHg 52%
16:00 +25°C° 0 mm 5 m/S 753 mmHg 56%
17:00 +23°C° 0 mm 5 m/S 753 mmHg 60%
18:00 +23°C° 0 mm 4 m/S 753 mmHg 64%
19:00 +21°C° 0 mm 4 m/S 753 mmHg 70%
20:00 +20°C° 0 mm 4 m/S 753 mmHg 76%
21:00 +18°C° 0 mm 3 m/S 753 mmHg 82%
22:00 +17°C° 0 mm 3 m/S 753 mmHg 82%
23:00 +17°C° 0 mm 3 m/S 753 mmHg 82%

20 Juni, Sonntag

Zeit Temperatur Niederschläge Wind Luftdruck Luftfeuchtigkeit
00:00 +16°C° 0 mm 3 m/S 753 mmHg 83%
01:00 +16°C° 0 mm 3 m/S 753 mmHg 82%
02:00 +14°C° 0 mm 3 m/S 753 mmHg 82%
03:00 +14°C° 0 mm 3 m/S 753 mmHg 82%
04:00 +14°C° 0 mm 3 m/S 753 mmHg 82%
05:00 +16°C° 0 mm 3 m/S 753 mmHg 81%
06:00 +16°C° 0 mm 3 m/S 753 mmHg 81%
07:00 +18°C° 0 mm 4 m/S 753 mmHg 75%
08:00 +20°C° 0 mm 4 m/S 753 mmHg 69%
09:00 +22°C° 0 mm 5 m/S 753 mmHg 63%
10:00 +23°C° 0 mm 5 m/S 752 mmHg 59%
11:00 +25°C° 0 mm 5 m/S 752 mmHg 55%
12:00 +26°C° 0 mm 5 m/S 752 mmHg 52%
13:00 +26°C° 0 mm 5 m/S 752 mmHg 51%
14:00 +27°C° 0 mm 5 m/S 752 mmHg 50%
15:00 +27°C° 0 mm 5 m/S 751 mmHg 50%
16:00 +27°C° 0 mm 5 m/S 751 mmHg 54%
17:00 +26°C° 0 mm 4 m/S 751 mmHg 58%
18:00 +26°C° 0 mm 4 m/S 751 mmHg 62%
19:00 +23°C° 0 mm 4 m/S 751 mmHg 68%
20:00 +22°C° 0 mm 4 m/S 751 mmHg 74%
21:00 +20°C° 0 mm 3 m/S 751 mmHg 80%
22:00 +19°C° 0 mm 3 m/S 751 mmHg 80%
23:00 +19°C° 0 mm 3 m/S 750 mmHg 81%
Mehr zeigen

Wir brauchen deine Erlaubnis

Meteoprog und unser Service Anbieter werden persönliche Daten aufbewahren, so wie Cookies, Geräte Bezeichnung oder ähnliche Technologien von deinem Gerät und Prozess, so wie Persönliche Daten Inhalte und Werbungen, genauso wie social Media und den Verkehr zu analysieren.

  • Aufbewahrung und/oder Zugang zu deiner Geräte Informationen.

    Cookies, Geräte Bezeichnung oder andere Informationen, können aufbewahrt oder Zugang zu deinem Gerät erhalten, für den Grund, der oben angegeben wird.

  • Personalisierte Werbung und Inhalte, Messungen, Einblick in das Publikum und Produkt Entwicklung.

    Werbungen und Inhalte können personalisiert werden, basierend auf ein Profil. Mehr Daten können besser personalisierte Werbungen und Inhalte hinzufügen. Werbung und Inhalte können gezeigt und gemessen werden. Einblicke über das Publikum, welche die Werbung gesehen haben und den Inhalt, können abgeleitet werden. So wie Daten können genutzt werden, um es zu verbessern oder die Benutzer Erfahrung zu verbessern das System und die Software.

Wenn du “Ich stimme zu” klickst, erlaubst du uns, die Cookies zu benutzen die Geräte Bezeichnung, den Web oder ähnliche Technologien zu benutzen. Deine Settings, können in deinem Gerät bei deinem Browser geändert werden.

Für den bestimmten Zweck, berechtigten Interessen beruhen darauf, mehr als auf den Inhalt. Du kannst mehr darüber in unseren Privaten und Cookie Politik lesen.